TimeEST,TemperatureF,Dew PointF,Humidity,Sea Level PressureIn,VisibilityMPH,Wind Direction,Wind SpeedMPH,Gust SpeedMPH,PrecipitationIn,Events,Conditions,WindDirDegrees,DateUTC
12:53 AM,62.1,57.0,84,30.04,10.0,Calm,Calm,-,N/A,,Scattered Clouds,0,2012-12-25 05:53:00
1:53 AM,62.1,57.0,84,30.02,10.0,Calm,Calm,-,N/A,,Scattered Clouds,0,2012-12-25 06:53:00
2:53 AM,61.0,57.0,87,30.01,10.0,Calm,Calm,-,N/A,,Mostly Cloudy,0,2012-12-25 07:53:00
3:53 AM,60.1,57.0,90,30.00,10.0,North,3.5,-,N/A,,Clear,360,2012-12-25 08:53:00
4:53 AM,60.1,55.9,86,30.00,10.0,Calm,Calm,-,N/A,,Clear,0,2012-12-25 09:53:00
5:53 AM,59.0,57.0,93,30.01,10.0,Calm,Calm,-,N/A,,Clear,0,2012-12-25 10:53:00
6:53 AM,59.0,55.9,90,30.02,10.0,Calm,Calm,-,N/A,,Clear,0,2012-12-25 11:53:00
7:53 AM,61.0,57.9,90,30.03,10.0,Calm,Calm,-,N/A,,Partly Cloudy,0,2012-12-25 12:53:00
8:53 AM,68.0,59.0,73,30.05,10.0,Calm,Calm,-,N/A,,Scattered Clouds,0,2012-12-25 13:53:00
9:53 AM,75.0,61.0,62,30.06,10.0,Calm,Calm,-,N/A,,Scattered Clouds,0,2012-12-25 14:53:00
10:53 AM,78.1,57.9,50,30.05,10.0,East,11.5,-,N/A,,Scattered Clouds,100,2012-12-25 15:53:00
11:53 AM,79.0,57.9,48,30.03,10.0,SE,11.5,-,N/A,,Scattered Clouds,140,2012-12-25 16:53:00
12:53 PM,79.0,57.9,48,29.99,10.0,SE,12.7,18.4,N/A,,Partly Cloudy,140,2012-12-25 17:53:00
1:53 PM,78.1,57.9,50,29.98,10.0,ESE,15.0,18.4,N/A,,Partly Cloudy,110,2012-12-25 18:53:00
2:53 PM,77.0,57.9,52,29.98,10.0,SE,10.4,-,N/A,,Scattered Clouds,140,2012-12-25 19:53:00
3:53 PM,77.0,59.0,54,29.96,10.0,ESE,13.8,-,N/A,,Scattered Clouds,120,2012-12-25 20:53:00
4:53 PM,75.0,59.0,57,29.96,10.0,SE,9.2,-,N/A,,Mostly Cloudy,140,2012-12-25 21:53:00
5:53 PM,73.9,60.1,62,29.96,10.0,SE,11.5,-,N/A,,Clear,130,2012-12-25 22:53:00
6:53 PM,73.0,61.0,66,29.96,10.0,SE,9.2,-,N/A,,Scattered Clouds,140,2012-12-25 23:53:00
7:53 PM,73.0,62.1,68,29.97,10.0,SE,10.4,-,N/A,,Scattered Clouds,140,2012-12-26 00:53:00
8:53 PM,73.0,62.1,68,29.98,10.0,SE,10.4,-,N/A,,Clear,130,2012-12-26 01:53:00
9:53 PM,73.9,62.1,66,29.97,10.0,SE,9.2,18.4,N/A,,Clear,140,2012-12-26 02:53:00
10:53 PM,73.0,63.0,71,29.96,10.0,SE,11.5,-,N/A,,Partly Cloudy,140,2012-12-26 03:53:00
11:53 PM,73.9,64.0,71,29.96,10.0,SSE,9.2,-,N/A,,Partly Cloudy,150,2012-12-26 04:53:00